QPF
0.00 0.00 0.00 0.00 0.00 0.00 0.00 0.00 0.00 0.00 0.00 0.00 0.00 0.00 0.00 0.00 0.01 0.01 0.02 0.03 0.04 0.04 0.06 0.07 0.08 0.09 0.10 0.12 0.14 0.15 0.16 0.17 0.19 0.17 0.15 0.16 0.19 0.19 0.20 0.18 0.16 0.14 0.12
0.00 0.00 0.00 0.00 0.00 0.00 0.00 0.00 0.00 0.00 0.00 0.00 0.00 0.00 0.00 0.00 0.00 0.01 0.01 0.01 0.02 0.03 0.03 0.04 0.05 0.07 0.08 0.09 0.10 0.11 0.12 0.13 0.14 0.13 0.13 0.13 0.13 0.12 0.11 0.09 0.08 0.07 0.06
0.00 0.00 0.00 0.00 0.00 0.00 0.00 0.00 0.00 0.00 0.00 0.00 0.00 0.00 0.00 0.00 0.00 0.00 0.01 0.01 0.01 0.02 0.02 0.02 0.03 0.03 0.04 0.04 0.05 0.06 0.07 0.08 0.09 0.09 0.09 0.08 0.07 0.07 0.06 0.05 0.04 0.03 0.02
0.00 0.00 0.00 0.00 0.00 0.00 0.00 0.00 0.00 0.00 0.00 0.00 0.00 0.00 0.00 0.00 0.00 0.00 0.00 0.00 0.00 0.00 0.01 0.01 0.01 0.01 0.02 0.02 0.03 0.05 0.06 0.06 0.07 0.07 0.07 0.07 0.07 0.05 0.04 0.03 0.03 0.02 0.02
0.00 0.00 0.00 0.00 0.00 0.00 0.00 0.00 0.00 0.00 0.00 0.00 0.00 0.00 0.00 0.00 0.00 0.00 0.00 0.00 0.00 0.01 0.01 0.01 0.01 0.02 0.03 0.04 0.04 0.04 0.04 0.04 0.04 0.05 0.05 0.05 0.05 0.04 0.03 0.02 0.02 0.01 0.01
0.00 0.00 0.00 0.00 0.00 0.00 0.00 0.00 0.00 0.00 0.00 0.00 0.00 0.00 0.00 0.00 0.00 0.00 0.00 0.00 0.00 0.01 0.01 0.01 0.02 0.02 0.03 0.04 0.04 0.04 0.03 0.03 0.04 0.05 0.05 0.04 0.03 0.03 0.02 0.01 0.01 0.01 0.00
0.00 0.00 0.00 0.00 0.00 0.00 0.00 0.00 0.00 0.00 0.00 0.00 0.00 0.00 0.00 0.00 0.00 0.00 0.00 0.00 0.00 0.01 0.01 0.01 0.02 0.02 0.03 0.03 0.03 0.03 0.03 0.02 0.02 0.02 0.02 0.02 0.02 0.01 0.01 0.01 0.01 0.00 0.00
0.00 0.00 0.00 0.00 0.00 0.00 0.00 0.00 0.00 0.00 0.00 0.00 0.00 0.00 0.00 0.00 0.00 0.00 0.00 0.00 0.00 0.00 0.01 0.01 0.01 0.01 0.02 0.02 0.01 0.01 0.01 0.01 0.01 0.00 0.00 0.00 0.00 0.00 0.00 0.00 0.00 0.00 0.00
0.00 0.00 0.00 0.00 0.00 0.00 0.00 0.00 0.00 0.00 0.00 0.00 0.00 0.00 0.00 0.00 0.00 0.00 0.00 0.00 0.00 0.00 0.00 0.00 0.01 0.01 0.01 0.01 0.01 0.01 0.01 0.01 0.01 0.00 0.00 0.00 0.00 0.00 0.00 0.00 0.00 0.00 0.00
0.00 0.00 0.00 0.00 0.00 0.00 0.00 0.00 0.00 0.00 0.00 0.00 0.00 0.00 0.00 0.00 0.00 0.00 0.00 0.00 0.00 0.00 0.00 0.00 0.00 0.00 0.00 0.00 0.00 0.00 0.00 0.00 0.00 0.00 0.00 0.00 0.00 0.00 0.00 0.00 0.00 0.00 0.00
0.00 0.00 0.00 0.00 0.00 0.00 0.00 0.00 0.00 0.00 0.00 0.00 0.00 0.00 0.00 0.00 0.00 0.00 0.00 0.00 0.00 0.00 0.00 0.00 0.00 0.00 0.00 0.00 0.00 0.00 0.00 0.00 0.00 0.00 0.00 0.00 0.00 0.00 0.00 0.00 0.00 0.00 0.00
0.00 0.00 0.00 0.00 0.00 0.00 0.00 0.00 0.00 0.00 0.00 0.00 0.00 0.00 0.00 0.00 0.00 0.00 0.00 0.00 0.00 0.00 0.00 0.00 0.00 0.00 0.00 0.00 0.00 0.00 0.00 0.00 0.00 0.00 0.00 0.00 0.00 0.00 0.00 0.00 0.00 0.00 0.00
0.00 0.00 0.00 0.00 0.00 0.00 0.00 0.00 0.00 0.00 0.00 0.00 0.00 0.00 0.00 0.00 0.00 0.00 0.00 0.00 0.00 0.00 0.00 0.00 0.00 0.00 0.00 0.00 0.00 0.00 0.00 0.00 0.00 0.00 0.00 0.00 0.00 0.00 0.00 0.00 0.00 0.00 0.00
0.00 0.00 0.00 0.00 0.00 0.00 0.00 0.00 0.00 0.00 0.00 0.00 0.00 0.00 0.00 0.00 0.00 0.00 0.00 0.00 0.00 0.00 0.00 0.00 0.00 0.00 0.00 0.00 0.00 0.00 0.00 0.00 0.00 0.00 0.00 0.00 0.00 0.00 0.00 0.00 0.00 0.00 0.00
0.00 0.00 0.00 0.00 0.00 0.00 0.00 0.00 0.00 0.00 0.00 0.00 0.00 0.00 0.00 0.00 0.00 0.00 0.00 0.00 0.00 0.00 0.00 0.00 0.00 0.00 0.00 0.00 0.00 0.00 0.00 0.00 0.00 0.00 0.00 0.00 0.00 0.00 0.00 0.00 0.00 0.00 0.00
0.00 0.00 0.00 0.00 0.00 0.00 0.00 0.00 0.00 0.00 0.00 0.00 0.00 0.00 0.00 0.00 0.00 0.00 0.00 0.00 0.00 0.00 0.00 0.00 0.00 0.00 0.00 0.00 0.00 0.00 0.00 0.00 0.00 0.00 0.00 0.00 0.00 0.00 0.00 0.00 0.00 0.01 0.01
0.00 0.00 0.00 0.00 0.00 0.00 0.00 0.00 0.00 0.00 0.00 0.00 0.00 0.00 0.00 0.00 0.00 0.00 0.00 0.00 0.00 0.00 0.00 0.00 0.00 0.00 0.00 0.00 0.00 0.00 0.00 0.00 0.00 0.00 0.00 0.00 0.00 0.00 0.01 0.01 0.01 0.01 0.01
0.00 0.00 0.00 0.00 0.00 0.00 0.00 0.00 0.00 0.00 0.00 0.00 0.00 0.00 0.00 0.00 0.00 0.00 0.00 0.00 0.00 0.00 0.00 0.00 0.00 0.00 0.00 0.00 0.00 0.00 0.00 0.00 0.00 0.00 0.00 0.00 0.00 0.01 0.01 0.01 0.01 0.01 0.01
0.00 0.00 0.00 0.00 0.00 0.00 0.00 0.00 0.00 0.00 0.00 0.00 0.00 0.00 0.00 0.00 0.00 0.00 0.00 0.00 0.00 0.00 0.00 0.00 0.00 0.00 0.00 0.00 0.00 0.00 0.00 0.00 0.00 0.00 0.00 0.00 0.00 0.01 0.01 0.01 0.01 0.01 0.01
0.01 0.01 0.01 0.00 0.00 0.00 0.00 0.00 0.00 0.00 0.00 0.00 0.00 0.00 0.00 0.00 0.00 0.00 0.00 0.00 0.00 0.00 0.00 0.00 0.00 0.00 0.00 0.00 0.00 0.00 0.00 0.00 0.00 0.00 0.00 0.00 0.00 0.01 0.01 0.01 0.01 0.01 0.01
0.01 0.01 0.01 0.01 0.00 0.00 0.00 0.00 0.00 0.00 0.00 0.00 0.00 0.00 0.00 0.00 0.00 0.00 0.00 0.00 0.00 0.00 0.00 0.00 0.00 0.00 0.00 0.00 0.00 0.00 0.00 0.00 0.00 0.00 0.00 0.00 0.01 0.01 0.01 0.01 0.01 0.01 0.01
0.01 0.01 0.01 0.01 0.01 0.01 0.01 0.00 0.00 0.00 0.00 0.00 0.00 0.00 0.00 0.00 0.00 0.00 0.00 0.00 0.00 0.00 0.00 0.00 0.00 0.00 0.00 0.00 0.00 0.00 0.00 0.00 0.00 0.00 0.01 0.01 0.01 0.01 0.01 0.01 0.01 0.01 0.01
0.01 0.01 0.01 0.01 0.01 0.01 0.01 0.01 0.00 0.00 0.00 0.00 0.00 0.00 0.00 0.00 0.00 0.00 0.00 0.00 0.00 0.00 0.00 0.00 0.00 0.00 0.00 0.00 0.00 0.01 0.01 0.01 0.00 0.01 0.02 0.01 0.01 0.01 0.01 0.01 0.01 0.01 0.01
0.02 0.02 0.02 0.02 0.03 0.02 0.01 0.01 0.01 0.00 0.00 0.00 0.00 0.00 0.00 0.00 0.00 0.00 0.00 0.00 0.00 0.00 0.00 0.00 0.00 0.00 0.00 0.00 0.00 0.00 0.01 0.01 0.02 0.02 0.02 0.02 0.01 0.01 0.01 0.01 0.01 0.01 0.02
0.03 0.03 0.03 0.04 0.04 0.03 0.02 0.01 0.01 0.00 0.00 0.00 0.00 0.00 0.00 0.00 0.00 0.00 0.00 0.00 0.00 0.00 0.00 0.00 0.00 0.00 0.00 0.00 0.00 0.00 0.00 0.01 0.02 0.04 0.05 0.05 0.03 0.02 0.02 0.02 0.02 0.02 0.02
0.04 0.04 0.05 0.05 0.05 0.03 0.02 0.01 0.01 0.00 0.00 0.00 0.00 0.00 0.00 0.00 0.00 0.00 0.00 0.00 0.00 0.00 0.00 0.00 0.00 0.00 0.00 0.00 0.00 0.00 0.00 0.01 0.01 0.02 0.06 0.07 0.06 0.04 0.03 0.04 0.04 0.03 0.03
MSLP
1018.68 1018.68 1018.71 1018.74 1018.76 1018.76 1018.72 1018.64 1018.51 1018.34 1018.13 1017.89 1017.62 1017.34 1017.04 1016.76 1016.49 1016.25 1016.05 1015.90 1015.78 1015.72 1015.68 1015.68 1015.70 1015.75 1015.83 1015.94 1016.10 1016.30 1016.57 1016.88 1017.24 1017.62 1018.02 1018.40 1018.76 1019.09 1019.38 1019.65 1019.91 1020.16 1020.43
1019.08 1019.07 1019.07 1019.10 1019.12 1019.14 1019.13 1019.09 1019.02 1018.90 1018.73 1018.53 1018.30 1018.04 1017.78 1017.51 1017.27 1017.05 1016.86 1016.72 1016.60 1016.52 1016.46 1016.41 1016.38 1016.36 1016.37 1016.42 1016.52 1016.68 1016.90 1017.19 1017.53 1017.90 1018.29 1018.67 1019.02 1019.34 1019.62 1019.86 1020.09 1020.30 1020.52
1019.48 1019.47 1019.47 1019.48 1019.50 1019.52 1019.52 1019.51 1019.46 1019.38 1019.26 1019.10 1018.90 1018.68 1018.45 1018.23 1018.02 1017.84 1017.68 1017.56 1017.46 1017.38 1017.30 1017.23 1017.16 1017.10 1017.05 1017.04 1017.08 1017.18 1017.35 1017.60 1017.90 1018.24 1018.61 1018.96 1019.30 1019.60 1019.86 1020.08 1020.27 1020.44 1020.61
1019.84 1019.84 1019.84 1019.85 1019.86 1019.87 1019.88 1019.88 1019.85 1019.79 1019.70 1019.57 1019.42 1019.24 1019.06 1018.88 1018.72 1018.58 1018.47 1018.38 1018.31 1018.24 1018.17 1018.08 1017.98 1017.89 1017.80 1017.73 1017.72 1017.77 1017.89 1018.07 1018.33 1018.62 1018.95 1019.27 1019.57 1019.84 1020.08 1020.27 1020.43 1020.57 1020.69
1020.11 1020.14 1020.16 1020.17 1020.18 1020.19 1020.20 1020.20 1020.18 1020.15 1020.08 1019.99 1019.88 1019.75 1019.62 1019.49 1019.38 1019.29 1019.22 1019.16 1019.12 1019.06 1019.00 1018.91 1018.80 1018.68 1018.56 1018.46 1018.40 1018.39 1018.45 1018.58 1018.78 1019.02 1019.29 1019.57 1019.83 1020.07 1020.28 1020.45 1020.58 1020.69 1020.77
1020.30 1020.36 1020.40 1020.43 1020.45 1020.46 1020.48 1020.49 1020.50 1020.49 1020.46 1020.41 1020.34 1020.25 1020.16 1020.08 1020.01 1019.96 1019.92 1019.89 1019.87 1019.83 1019.77 1019.69 1019.57 1019.43 1019.29 1019.16 1019.06 1019.01 1019.02 1019.09 1019.22 1019.40 1019.61 1019.84 1020.06 1020.27 1020.45 1020.60 1020.72 1020.81 1020.87
1020.39 1020.50 1020.57 1020.63 1020.67 1020.71 1020.75 1020.79 1020.83 1020.85 1020.86 1020.85 1020.82 1020.77 1020.72 1020.68 1020.63 1020.60 1020.58 1020.57 1020.55 1020.52 1020.46 1020.38 1020.26 1020.11 1019.95 1019.80 1019.67 1019.58 1019.54 1019.55 1019.63 1019.75 1019.90 1020.08 1020.26 1020.44 1020.60 1020.73 1020.84 1020.93 1020.97
1020.42 1020.57 1020.68 1020.78 1020.87 1020.95 1021.03 1021.12 1021.20 1021.26 1021.31 1021.34 1021.34 1021.33 1021.31 1021.28 1021.25 1021.22 1021.20 1021.18 1021.15 1021.11 1021.04 1020.95 1020.82 1020.67 1020.51 1020.34 1020.19 1020.07 1019.99 1019.96 1019.98 1020.04 1020.15 1020.27 1020.42 1020.56 1020.70 1020.83 1020.93 1021.01 1021.06
1020.41 1020.60 1020.76 1020.91 1021.05 1021.19 1021.33 1021.47 1021.59 1021.71 1021.80 1021.86 1021.89 1021.89 1021.88 1021.84 1021.80 1021.76 1021.72 1021.67 1021.62 1021.56 1021.48 1021.38 1021.25 1021.10 1020.93 1020.76 1020.60 1020.46 1020.35 1020.29 1020.26 1020.28 1020.34 1020.42 1020.52 1020.63 1020.75 1020.87 1020.97 1021.05 1021.09
1020.39 1020.62 1020.83 1021.03 1021.23 1021.43 1021.63 1021.82 1022.00 1022.15 1022.27 1022.35 1022.39 1022.40 1022.37 1022.32 1022.25 1022.18 1022.10 1022.02 1021.94 1021.86 1021.76 1021.65 1021.51 1021.37 1021.21 1021.05 1020.89 1020.75 1020.63 1020.54 1020.48 1020.46 1020.47 1020.51 1020.57 1020.65 1020.74 1020.84 1020.93 1021.01 1021.05
1020.37 1020.63 1020.89 1021.14 1021.40 1021.66 1021.90 1022.14 1022.35 1022.53 1022.66 1022.75 1022.78 1022.77 1022.72 1022.64 1022.54 1022.42 1022.31 1022.20 1022.09 1021.98 1021.87 1021.76 1021.64 1021.50 1021.36 1021.22 1021.08 1020.95 1020.83 1020.73 1020.65 1020.60 1020.57 1020.56 1020.58 1020.63 1020.68 1020.75 1020.82 1020.87 1020.90
1020.33 1020.63 1020.93 1021.23 1021.53 1021.83 1022.11 1022.37 1022.60 1022.78 1022.91 1022.98 1023.00 1022.96 1022.87 1022.76 1022.62 1022.48 1022.34 1022.20 1022.07 1021.96 1021.85 1021.75 1021.64 1021.54 1021.43 1021.31 1021.20 1021.09 1020.98 1020.88 1020.78 1020.71 1020.65 1020.60 1020.58 1020.57 1020.58 1020.60 1020.62 1020.64 1020.64
1020.25 1020.59 1020.92 1021.26 1021.59 1021.91 1022.21 1022.47 1022.69 1022.86 1022.97 1023.02 1023.00 1022.93 1022.82 1022.68 1022.52 1022.35 1022.20 1022.06 1021.94 1021.83 1021.74 1021.66 1021.58 1021.51 1021.44 1021.36 1021.28 1021.20 1021.11 1021.01 1020.91 1020.82 1020.73 1020.64 1020.57 1020.50 1020.46 1020.42 1020.38 1020.35 1020.30
1020.09 1020.46 1020.83 1021.19 1021.54 1021.87 1022.16 1022.42 1022.62 1022.76 1022.83 1022.85 1022.80 1022.71 1022.58 1022.42 1022.26 1022.10 1021.96 1021.84 1021.74 1021.66 1021.60 1021.55 1021.52 1021.49 1021.45 1021.41 1021.37 1021.31 1021.24 1021.15 1021.05 1020.94 1020.82 1020.70 1020.57 1020.45 1020.34 1020.23 1020.13 1020.02 1019.91
1019.82 1020.22 1020.62 1021.00 1021.36 1021.69 1021.97 1022.20 1022.37 1022.48 1022.53 1022.52 1022.46 1022.35 1022.22 1022.08 1021.93 1021.80 1021.69 1021.60 1021.54 1021.50 1021.49 1021.48 1021.48 1021.49 1021.49 1021.48 1021.46 1021.42 1021.37 1021.29 1021.19 1021.07 1020.93 1020.77 1020.59 1020.41 1020.23 1020.05 1019.87 1019.69 1019.50
1019.40 1019.85 1020.27 1020.67 1021.04 1021.36 1021.63 1021.84 1022.00 1022.09 1022.11 1022.09 1022.02 1021.93 1021.82 1021.70 1021.60 1021.52 1021.45 1021.42 1021.41 1021.41 1021.43 1021.46 1021.50 1021.52 1021.55 1021.55 1021.55 1021.52 1021.48 1021.40 1021.30 1021.16 1021.00 1020.81 1020.59 1020.36 1020.12 1019.87 1019.61 1019.36 1019.10
1018.87 1019.34 1019.79 1020.21 1020.59 1020.92 1021.18 1021.39 1021.54 1021.62 1021.65 1021.63 1021.58 1021.51 1021.44 1021.37 1021.32 1021.29 1021.28 1021.30 1021.33 1021.38 1021.43 1021.48 1021.53 1021.57 1021.59 1021.60 1021.59 1021.56 1021.50 1021.42 1021.31 1021.17 1020.99 1020.78 1020.53 1020.26 1019.96 1019.66 1019.34 1019.02 1018.70
1018.23 1018.73 1019.21 1019.65 1020.04 1020.38 1020.67 1020.89 1021.04 1021.14 1021.19 1021.19 1021.17 1021.14 1021.11 1021.09 1021.09 1021.12 1021.16 1021.22 1021.29 1021.37 1021.43 1021.49 1021.53 1021.56 1021.56 1021.55 1021.52 1021.47 1021.40 1021.30 1021.18 1021.02 1020.83 1020.60 1020.34 1020.04 1019.71 1019.36 1019.00 1018.63 1018.26
1017.54 1018.06 1018.55 1019.02 1019.44 1019.80 1020.11 1020.36 1020.55 1020.68 1020.76 1020.80 1020.82 1020.82 1020.84 1020.86 1020.90 1020.97 1021.05 1021.14 1021.23 1021.31 1021.38 1021.42 1021.44 1021.43 1021.40 1021.35 1021.29 1021.20 1021.10 1020.98 1020.84 1020.67 1020.47 1020.23 1019.96 1019.65 1019.30 1018.94 1018.55 1018.14 1017.74
1016.86 1017.37 1017.88 1018.36 1018.81 1019.21 1019.56 1019.85 1020.07 1020.24 1020.36 1020.44 1020.49 1020.53 1020.58 1020.63 1020.70 1020.79 1020.89 1020.98 1021.07 1021.15 1021.20 1021.21 1021.20 1021.15 1021.08 1020.98 1020.86 1020.74 1020.60 1020.45 1020.29 1020.10 1019.89 1019.64 1019.36 1019.05 1018.70 1018.33 1017.93 1017.51 1017.08
1016.21 1016.71 1017.22 1017.72 1018.20 1018.63 1019.02 1019.35 1019.62 1019.82 1019.98 1020.09 1020.17 1020.23 1020.29 1020.36 1020.44 1020.53 1020.62 1020.71 1020.79 1020.84 1020.86 1020.84 1020.78 1020.69 1020.57 1020.42 1020.26 1020.08 1019.90 1019.71 1019.52 1019.31 1019.08 1018.83 1018.55 1018.23 1017.89 1017.51 1017.11 1016.69 1016.26
1015.65 1016.12 1016.62 1017.12 1017.62 1018.08 1018.50 1018.87 1019.17 1019.41 1019.58 1019.71 1019.81 1019.88 1019.94 1020.01 1020.07 1020.15 1020.23 1020.30 1020.35 1020.37 1020.36 1020.31 1020.21 1020.08 1019.91 1019.71 1019.50 1019.28 1019.05 1018.82 1018.59 1018.35 1018.10 1017.83 1017.54 1017.22 1016.87 1016.50 1016.10 1015.68 1015.25
1015.17 1015.61 1016.09 1016.59 1017.09 1017.57 1018.01 1018.39 1018.71 1018.97 1019.16 1019.30 1019.39 1019.46 1019.51 1019.56 1019.61 1019.66 1019.72 1019.76 1019.79 1019.78 1019.74 1019.66 1019.53 1019.36 1019.15 1018.91 1018.65 1018.38 1018.10 1017.83 1017.55 1017.27 1016.98 1016.69 1016.37 1016.04 1015.69 1015.31 1014.91 1014.49 1014.05
1014.80 1015.19 1015.64 1016.12 1016.60 1017.08 1017.52 1017.91 1018.24 1018.50 1018.69 1018.82 1018.91 1018.97 1019.01 1019.04 1019.08 1019.11 1019.14 1019.16 1019.16 1019.13 1019.07 1018.96 1018.80 1018.60 1018.36 1018.08 1017.77 1017.45 1017.12 1016.79 1016.46 1016.13 1015.80 1015.46 1015.11 1014.75 1014.37 1013.98 1013.56 1013.13 1012.68
1014.50 1014.85 1015.26 1015.70 1016.16 1016.62 1017.04 1017.42 1017.74 1017.99 1018.18 1018.32 1018.40 1018.45 1018.48 1018.50 1018.52 1018.54 1018.55 1018.55 1018.53 1018.48 1018.39 1018.26 1018.08 1017.84 1017.56 1017.24 1016.89 1016.52 1016.14 1015.75 1015.36 1014.97 1014.58 1014.18 1013.78 1013.38 1012.96 1012.54 1012.09 1011.64 1011.17
1014.26 1014.57 1014.93 1015.33 1015.76 1016.18 1016.57 1016.93 1017.23 1017.47 1017.66 1017.79 1017.88 1017.93 1017.97 1017.98 1018.00 1018.00 1018.00 1017.98 1017.94 1017.87 1017.76 1017.59 1017.37 1017.10 1016.78 1016.42 1016.01 1015.59 1015.14 1014.69 1014.23 1013.77 1013.31 1012.86 1012.40 1011.94 1011.47 1010.99 1010.51 1010.02 1009.52
Thickness
5584 5585 5585 5586 5587 5588 5588 5587 5587 5588 5588 5587 5587 5586 5585 5584 5583 5581 5577 5573 5568 5562 5556 5549 5540 5532 5524 5516 5509 5502 5495 5490 5487 5479 5473 5471 5472 5473 5472 5472 5472 5471 5469
5572 5573 5573 5573 5574 5574 5574 5574 5574 5574 5573 5573 5572 5572 5570 5569 5567 5565 5561 5556 5551 5546 5539 5533 5525 5518 5509 5501 5494 5487 5481 5477 5474 5468 5461 5458 5458 5459 5459 5459 5458 5458 5457
5560 5560 5560 5560 5561 5560 5561 5561 5561 5560 5559 5559 5558 5557 5555 5554 5551 5548 5544 5540 5535 5529 5524 5518 5511 5504 5495 5487 5481 5474 5469 5465 5463 5459 5453 5450 5448 5447 5446 5446 5446 5446 5445
5549 5549 5549 5548 5548 5548 5548 5548 5547 5547 5546 5545 5544 5543 5541 5539 5536 5533 5529 5525 5520 5515 5510 5504 5498 5491 5484 5477 5470 5464 5459 5455 5452 5449 5445 5442 5440 5438 5437 5436 5436 5435 5434
5539 5538 5538 5538 5537 5537 5536 5535 5535 5534 5533 5532 5531 5529 5528 5525 5522 5518 5515 5510 5506 5501 5496 5491 5486 5480 5475 5469 5462 5456 5451 5447 5444 5441 5437 5435 5432 5430 5429 5427 5426 5423 5422
5529 5528 5528 5527 5527 5526 5525 5523 5522 5521 5520 5519 5517 5516 5514 5512 5509 5505 5501 5497 5492 5488 5483 5479 5474 5469 5465 5461 5456 5450 5445 5440 5436 5433 5430 5428 5425 5423 5420 5418 5414 5412 5410
5520 5519 5519 5518 5516 5515 5514 5512 5510 5509 5508 5506 5504 5502 5500 5498 5495 5492 5488 5484 5480 5475 5471 5467 5463 5459 5454 5449 5446 5442 5437 5434 5431 5426 5422 5419 5416 5414 5411 5408 5404 5401 5398
5511 5510 5509 5508 5506 5505 5503 5501 5499 5498 5496 5494 5491 5489 5487 5486 5483 5480 5476 5471 5468 5464 5460 5456 5452 5448 5445 5441 5436 5432 5428 5425 5422 5419 5415 5412 5409 5406 5403 5399 5396 5392 5388
5503 5502 5500 5499 5497 5495 5493 5491 5489 5487 5485 5482 5479 5477 5475 5473 5472 5469 5465 5460 5456 5453 5450 5447 5443 5440 5438 5434 5428 5423 5420 5417 5415 5412 5409 5405 5403 5399 5396 5390 5384 5378 5374
5496 5494 5493 5491 5489 5487 5485 5482 5480 5478 5475 5472 5469 5466 5464 5463 5463 5460 5455 5451 5447 5444 5441 5438 5436 5433 5430 5426 5420 5416 5412 5408 5405 5402 5399 5396 5392 5388 5385 5380 5373 5364 5357
5489 5488 5486 5484 5482 5480 5477 5475 5472 5469 5466 5463 5460 5458 5456 5454 5453 5452 5448 5443 5439 5436 5432 5429 5426 5425 5422 5419 5415 5409 5405 5402 5397 5392 5388 5384 5381 5377 5373 5368 5362 5354 5345
5483 5481 5479 5477 5476 5473 5470 5467 5464 5461 5458 5455 5452 5449 5447 5446 5445 5443 5441 5438 5434 5429 5425 5421 5418 5417 5415 5411 5406 5403 5399 5394 5387 5382 5377 5373 5368 5363 5359 5354 5348 5342 5336
5478 5476 5473 5471 5469 5467 5464 5461 5457 5454 5451 5448 5444 5442 5440 5439 5436 5436 5433 5430 5427 5422 5418 5416 5413 5410 5406 5401 5397 5394 5389 5382 5377 5371 5366 5360 5355 5350 5345 5340 5335 5329 5323
5473 5471 5468 5465 5463 5460 5458 5456 5452 5448 5445 5442 5439 5437 5434 5432 5429 5427 5424 5421 5419 5415 5411 5408 5405 5401 5397 5393 5388 5382 5377 5371 5365 5359 5354 5348 5343 5337 5331 5325 5319 5314 5309
5469 5466 5463 5460 5457 5454 5452 5449 5447 5444 5441 5439 5436 5432 5429 5425 5424 5423 5419 5415 5411 5408 5404 5399 5395 5390 5386 5382 5377 5372 5366 5361 5354 5348 5341 5335 5330 5324 5318 5312 5306 5300 5295
5465 5461 5458 5454 5451 5448 5445 5442 5442 5440 5439 5436 5433 5429 5425 5423 5421 5418 5414 5411 5407 5403 5398 5391 5386 5381 5376 5371 5366 5361 5355 5349 5343 5336 5329 5321 5315 5309 5303 5297 5292 5286 5283
5462 5458 5454 5450 5446 5442 5439 5436 5434 5432 5431 5430 5427 5424 5421 5418 5414 5411 5407 5403 5399 5395 5388 5382 5377 5372 5367 5361 5356 5349 5343 5338 5331 5324 5316 5309 5302 5295 5289 5284 5279 5274 5271
5459 5456 5451 5447 5443 5439 5435 5432 5428 5425 5422 5420 5419 5417 5415 5411 5407 5404 5400 5396 5390 5385 5380 5374 5369 5364 5359 5353 5347 5341 5334 5328 5321 5314 5305 5297 5290 5283 5277 5272 5267 5262 5260
5455 5451 5447 5442 5438 5434 5431 5427 5423 5420 5416 5413 5410 5408 5407 5404 5400 5396 5393 5386 5381 5377 5373 5368 5362 5357 5351 5345 5339 5332 5325 5318 5311 5303 5295 5287 5280 5273 5268 5263 5258 5255 5253
5451 5448 5443 5438 5433 5429 5425 5421 5417 5414 5410 5407 5403 5401 5398 5395 5391 5387 5383 5379 5374 5370 5366 5361 5356 5350 5344 5337 5330 5323 5317 5310 5303 5295 5287 5279 5272 5266 5260 5255 5252 5248 5246
5445 5442 5438 5433 5429 5425 5421 5417 5413 5409 5405 5401 5398 5396 5394 5389 5385 5381 5376 5373 5368 5364 5359 5354 5349 5343 5337 5330 5323 5316 5309 5302 5295 5288 5280 5273 5266 5260 5255 5250 5247 5243 5241
5439 5435 5432 5427 5423 5419 5415 5411 5407 5403 5400 5396 5393 5390 5389 5384 5379 5374 5371 5367 5363 5358 5354 5348 5343 5337 5331 5324 5317 5309 5302 5296 5289 5282 5275 5268 5262 5256 5251 5246 5242 5239 5237
5431 5428 5425 5421 5417 5414 5410 5405 5401 5397 5394 5390 5387 5384 5380 5377 5373 5369 5365 5361 5357 5352 5348 5342 5337 5331 5326 5319 5312 5305 5298 5292 5286 5278 5271 5265 5259 5253 5248 5244 5240 5237 5235
5424 5421 5418 5414 5410 5406 5403 5399 5395 5392 5388 5385 5381 5378 5374 5371 5367 5363 5359 5355 5350 5346 5342 5336 5331 5326 5320 5314 5307 5301 5295 5288 5282 5275 5269 5263 5258 5252 5248 5244 5241 5239 5237
5416 5414 5411 5407 5403 5399 5396 5392 5389 5386 5383 5380 5376 5373 5369 5365 5361 5357 5353 5348 5344 5340 5336 5331 5326 5321 5315 5309 5303 5297 5291 5285 5279 5274 5270 5265 5260 5255 5251 5248 5246 5244 5242
5408 5406 5403 5400 5396 5393 5389 5386 5383 5380 5377 5374 5370 5366 5362 5358 5354 5351 5346 5342 5338 5334 5330 5325 5321 5316 5310 5305 5300 5294 5289 5284 5279 5274 5269 5266 5263 5260 5256 5254 5252 5250 5248